Year,Month,Day,Hour,Minute,Value (Times are PST for insolation in W/m^2)
2007,08,02,00,00,0.00
2007,08,02,00,01,0.00
2007,08,02,00,02,0.00
2007,08,02,00,03,0.00
2007,08,02,00,04,0.00
2007,08,02,00,05,0.00
2007,08,02,00,06,0.00
2007,08,02,00,07,0.00
2007,08,02,00,08,0.00
2007,08,02,00,09,0.00
2007,08,02,00,10,0.00
2007,08,02,00,11,0.00
2007,08,02,00,12,0.00
2007,08,02,00,13,0.00
2007,08,02,00,14,0.00
2007,08,02,00,15,0.00
2007,08,02,00,16,0.00
2007,08,02,00,17,0.00
2007,08,02,00,18,0.00
2007,08,02,00,19,0.00
2007,08,02,00,20,0.00
2007,08,02,00,21,0.00
2007,08,02,00,22,0.00
2007,08,02,00,23,0.00
2007,08,02,00,24,0.00
2007,08,02,00,25,0.00
2007,08,02,00,26,0.00
2007,08,02,00,27,0.00
2007,08,02,00,28,0.00
2007,08,02,00,29,0.00
2007,08,02,00,30,0.00
2007,08,02,00,31,0.00
2007,08,02,00,32,0.00
2007,08,02,00,33,0.00
2007,08,02,00,34,0.00
2007,08,02,00,35,0.00
2007,08,02,00,36,0.00
2007,08,02,00,37,0.00
2007,08,02,00,38,0.00
2007,08,02,00,39,0.00
2007,08,02,00,40,0.00
2007,08,02,00,41,0.00
2007,08,02,00,42,0.00
2007,08,02,00,43,0.00
2007,08,02,00,44,0.00
2007,08,02,00,45,0.00
2007,08,02,00,46,0.00
2007,08,02,00,47,0.00
2007,08,02,00,48,0.00
2007,08,02,00,49,0.00
2007,08,02,00,50,0.00
2007,08,02,00,51,0.00
2007,08,02,00,52,0.00
2007,08,02,00,53,0.00
2007,08,02,00,54,0.00
2007,08,02,00,55,0.00
2007,08,02,00,56,0.00
2007,08,02,00,57,0.00
2007,08,02,00,58,0.00
2007,08,02,00,59,0.00
2007,08,02,01,00,0.00
2007,08,02,01,01,0.00
2007,08,02,01,02,0.00
2007,08,02,01,03,0.00
2007,08,02,01,04,0.00
2007,08,02,01,05,0.00
2007,08,02,01,06,0.00
2007,08,02,01,07,0.00
2007,08,02,01,08,0.00
2007,08,02,01,09,0.00
2007,08,02,01,10,0.00
2007,08,02,01,11,0.00
2007,08,02,01,12,0.00
2007,08,02,01,13,0.00
2007,08,02,01,14,0.00
2007,08,02,01,15,0.00
2007,08,02,01,16,0.00
2007,08,02,01,17,0.00
2007,08,02,01,18,0.00
2007,08,02,01,19,0.00
2007,08,02,01,20,0.00
2007,08,02,01,21,0.00
2007,08,02,01,22,0.00
2007,08,02,01,23,0.00
2007,08,02,01,24,0.00
2007,08,02,01,25,0.00
2007,08,02,01,26,0.00
2007,08,02,01,27,0.00
2007,08,02,01,28,0.00
2007,08,02,01,29,0.00
2007,08,02,01,30,0.00
2007,08,02,01,31,0.00
2007,08,02,01,32,0.00
2007,08,02,01,33,0.00
2007,08,02,01,34,0.00
2007,08,02,01,35,0.00
2007,08,02,01,36,0.00
2007,08,02,01,37,0.00
2007,08,02,01,38,0.00
2007,08,02,01,39,0.00
2007,08,02,01,40,0.00
2007,08,02,01,41,0.00
2007,08,02,01,42,0.00
2007,08,02,01,43,0.00
2007,08,02,01,44,0.00
2007,08,02,01,45,0.00
2007,08,02,01,46,0.00
2007,08,02,01,47,0.00
2007,08,02,01,48,0.00
2007,08,02,01,49,0.00
2007,08,02,01,50,0.00
2007,08,02,01,51,0.00
2007,08,02,01,52,0.00
2007,08,02,01,53,0.00
2007,08,02,01,54,0.00
2007,08,02,01,55,0.00
2007,08,02,01,56,0.00
2007,08,02,01,57,0.00
2007,08,02,01,58,0.00
2007,08,02,01,59,0.00
2007,08,02,02,00,0.00
2007,08,02,02,01,0.00
2007,08,02,02,02,0.00
2007,08,02,02,03,0.00
2007,08,02,02,04,0.00
2007,08,02,02,05,0.00
2007,08,02,02,06,0.00
2007,08,02,02,07,0.00
2007,08,02,02,08,0.00
2007,08,02,02,09,0.00
2007,08,02,02,10,0.00
2007,08,02,02,11,0.00
2007,08,02,02,12,0.00
2007,08,02,02,13,0.00
2007,08,02,02,14,0.00
2007,08,02,02,15,0.00
2007,08,02,02,16,0.00
2007,08,02,02,17,0.00
2007,08,02,02,18,0.00
2007,08,02,02,19,0.00
2007,08,02,02,20,0.00
2007,08,02,02,21,0.00
2007,08,02,02,22,0.00
2007,08,02,02,23,0.00
2007,08,02,02,24,0.00
2007,08,02,02,25,0.00
2007,08,02,02,26,0.00
2007,08,02,02,27,0.00
2007,08,02,02,28,0.00
2007,08,02,02,29,0.00
2007,08,02,02,30,0.00
2007,08,02,02,31,0.00
2007,08,02,02,32,0.00
2007,08,02,02,33,0.00
2007,08,02,02,34,0.00
2007,08,02,02,35,0.00
2007,08,02,02,36,0.00
2007,08,02,02,37,0.00
2007,08,02,02,38,0.00
2007,08,02,02,39,0.00
2007,08,02,02,40,0.00
2007,08,02,02,41,0.00
2007,08,02,02,42,0.00
2007,08,02,02,43,0.00
2007,08,02,02,44,0.00
2007,08,02,02,45,0.00
2007,08,02,02,46,0.00
2007,08,02,02,47,0.00
2007,08,02,02,48,0.00
2007,08,02,02,49,0.00
2007,08,02,02,50,0.00
2007,08,02,02,51,0.00
2007,08,02,02,52,0.00
2007,08,02,02,53,0.00
2007,08,02,02,54,0.00
2007,08,02,02,55,0.00
2007,08,02,02,56,0.00
2007,08,02,02,57,0.00
2007,08,02,02,58,0.00
2007,08,02,02,59,0.00
2007,08,02,03,00,0.00
2007,08,02,03,01,0.00
2007,08,02,03,02,0.00
2007,08,02,03,03,0.00
2007,08,02,03,04,0.00
2007,08,02,03,05,0.00
2007,08,02,03,06,0.00
2007,08,02,03,07,0.00
2007,08,02,03,08,0.00
2007,08,02,03,09,0.00
2007,08,02,03,10,0.00
2007,08,02,03,11,0.00
2007,08,02,03,12,0.00
2007,08,02,03,13,0.00
2007,08,02,03,14,0.00
2007,08,02,03,15,0.00
2007,08,02,03,16,0.00
2007,08,02,03,17,0.00
2007,08,02,03,18,0.00
2007,08,02,03,19,0.00
2007,08,02,03,20,0.00
2007,08,02,03,21,0.00
2007,08,02,03,22,0.00
2007,08,02,03,23,0.00
2007,08,02,03,24,0.00
2007,08,02,03,25,0.00
2007,08,02,03,26,0.00
2007,08,02,03,27,0.00
2007,08,02,03,28,0.00
2007,08,02,03,29,0.00
2007,08,02,03,30,0.00
2007,08,02,03,31,0.00
2007,08,02,03,32,0.00
2007,08,02,03,33,0.00
2007,08,02,03,34,0.00
2007,08,02,03,35,0.00
2007,08,02,03,36,0.00
2007,08,02,03,37,0.00
2007,08,02,03,38,0.00
2007,08,02,03,39,0.00
2007,08,02,03,40,0.00
2007,08,02,03,41,0.00
2007,08,02,03,42,0.00
2007,08,02,03,43,0.00
2007,08,02,03,44,0.00
2007,08,02,03,45,0.00
2007,08,02,03,46,0.00
2007,08,02,03,47,0.00
2007,08,02,03,48,0.00
2007,08,02,03,49,0.00
2007,08,02,03,50,0.00
2007,08,02,03,51,0.00
2007,08,02,03,52,0.00
2007,08,02,03,53,0.00
2007,08,02,03,54,0.00
2007,08,02,03,55,0.00
2007,08,02,03,56,0.00
2007,08,02,03,57,0.00
2007,08,02,03,58,0.00
2007,08,02,03,59,0.00
2007,08,02,04,00,0.00
2007,08,02,04,01,0.00
2007,08,02,04,02,0.00
2007,08,02,04,03,0.00
2007,08,02,04,04,0.00
2007,08,02,04,05,0.00
2007,08,02,04,06,0.00
2007,08,02,04,07,0.00
2007,08,02,04,08,0.00
2007,08,02,04,09,0.00
2007,08,02,04,10,0.00
2007,08,02,04,11,0.00
2007,08,02,04,12,0.00
2007,08,02,04,13,0.00
2007,08,02,04,14,0.00
2007,08,02,04,15,0.00
2007,08,02,04,16,0.00
2007,08,02,04,17,0.00
2007,08,02,04,18,0.00
2007,08,02,04,19,0.00
2007,08,02,04,20,0.00
2007,08,02,04,21,0.00
2007,08,02,04,22,0.00
2007,08,02,04,23,0.00
2007,08,02,04,24,0.00
2007,08,02,04,25,0.00
2007,08,02,04,26,0.00
2007,08,02,04,27,0.00
2007,08,02,04,28,0.00
2007,08,02,04,29,0.00
2007,08,02,04,30,0.00
2007,08,02,04,31,0.00
2007,08,02,04,32,0.00
2007,08,02,04,33,0.00
2007,08,02,04,34,0.00
2007,08,02,04,35,0.00
2007,08,02,04,36,0.00
2007,08,02,04,37,0.00
2007,08,02,04,38,0.00
2007,08,02,04,39,0.00
2007,08,02,04,40,0.00
2007,08,02,04,41,0.00
2007,08,02,04,42,0.00
2007,08,02,04,43,0.00
2007,08,02,04,44,0.00
2007,08,02,04,45,0.00
2007,08,02,04,46,0.00
2007,08,02,04,47,0.00
2007,08,02,04,48,0.00
2007,08,02,04,49,0.00
2007,08,02,04,50,0.00
2007,08,02,04,51,0.00
2007,08,02,04,52,0.00
2007,08,02,04,53,0.00
2007,08,02,04,54,0.00
2007,08,02,04,55,0.00
2007,08,02,04,56,0.00
2007,08,02,04,57,0.00
2007,08,02,04,58,0.00
2007,08,02,04,59,0.00
2007,08,02,05,00,0.00
2007,08,02,05,01,0.00
2007,08,02,05,02,0.00
2007,08,02,05,03,0.00
2007,08,02,05,04,0.00
2007,08,02,05,05,0.00
2007,08,02,05,06,0.00
2007,08,02,05,07,0.00
2007,08,02,05,08,0.00
2007,08,02,05,09,0.00
2007,08,02,05,10,0.00
2007,08,02,05,11,0.00
2007,08,02,05,12,0.00
2007,08,02,05,13,0.00
2007,08,02,05,14,0.00
2007,08,02,05,15,0.00
2007,08,02,05,16,0.00
2007,08,02,05,17,0.00
2007,08,02,05,18,0.00
2007,08,02,05,19,0.00
2007,08,02,05,20,0.00
2007,08,02,05,21,0.00
2007,08,02,05,22,0.00
2007,08,02,05,23,0.00
2007,08,02,05,24,0.00
2007,08,02,05,25,0.00
2007,08,02,05,26,0.00
2007,08,02,05,27,0.00
2007,08,02,05,28,0.00
2007,08,02,05,29,0.00
2007,08,02,05,30,0.00
2007,08,02,05,31,0.00
2007,08,02,05,32,0.00
2007,08,02,05,33,0.00
2007,08,02,05,34,0.00
2007,08,02,05,35,0.00
2007,08,02,05,36,0.00
2007,08,02,05,37,0.00
2007,08,02,05,38,0.00
2007,08,02,05,39,0.00
2007,08,02,05,40,0.00
2007,08,02,05,41,0.00
2007,08,02,05,42,0.00
2007,08,02,05,43,0.00
2007,08,02,05,44,0.00
2007,08,02,05,45,0.00
2007,08,02,05,46,0.00
2007,08,02,05,47,0.00
2007,08,02,05,48,0.00
2007,08,02,05,49,0.00
2007,08,02,05,50,0.00
2007,08,02,05,51,1.50
2007,08,02,05,52,5.00
2007,08,02,05,53,5.00
2007,08,02,05,54,5.00
2007,08,02,05,55,5.00
2007,08,02,05,56,5.00
2007,08,02,05,57,5.70
2007,08,02,05,58,7.00
2007,08,02,05,59,7.00
2007,08,02,06,00,7.00
2007,08,02,06,01,7.00
2007,08,02,06,02,7.50
2007,08,02,06,03,9.00
2007,08,02,06,04,9.00
2007,08,02,06,05,9.00
2007,08,02,06,06,10.80
2007,08,02,06,07,11.00
2007,08,02,06,08,11.00
2007,08,02,06,09,11.40
2007,08,02,06,10,12.00
2007,08,02,06,11,12.00
2007,08,02,06,12,12.00
2007,08,02,06,13,12.00
2007,08,02,06,14,12.00
2007,08,02,06,15,12.70
2007,08,02,06,16,14.00
2007,08,02,06,17,14.00
2007,08,02,06,18,14.00
2007,08,02,06,19,14.00
2007,08,02,06,20,14.00
2007,08,02,06,21,14.80
2007,08,02,06,22,16.00
2007,08,02,06,23,16.00
2007,08,02,06,24,16.00
2007,08,02,06,25,18.00
2007,08,02,06,26,18.00
2007,08,02,06,27,18.00
2007,08,02,06,28,18.60
2007,08,02,06,29,19.00
2007,08,02,06,30,18.10
2007,08,02,06,31,19.00
2007,08,02,06,32,19.00
2007,08,02,06,33,19.00
2007,08,02,06,34,19.00
2007,08,02,06,35,20.40
2007,08,02,06,36,21.00
2007,08,02,06,37,21.00
2007,08,02,06,38,21.00
2007,08,02,06,39,21.00
2007,08,02,06,40,21.00
2007,08,02,06,41,21.00
2007,08,02,06,42,23.00
2007,08,02,06,43,26.00
2007,08,02,06,44,27.40
2007,08,02,06,45,30.00
2007,08,02,06,46,31.20
2007,08,02,06,47,32.00
2007,08,02,06,48,26.80
2007,08,02,06,49,30.00
2007,08,02,06,50,28.60
2007,08,02,06,51,25.40
2007,08,02,06,52,25.00
2007,08,02,06,53,25.80
2007,08,02,06,54,33.40
2007,08,02,06,55,40.20
2007,08,02,06,56,42.10
2007,08,02,06,57,35.50
2007,08,02,06,58,37.60
2007,08,02,06,59,45.60
2007,08,02,07,00,45.10
2007,08,02,07,01,41.70
2007,08,02,07,02,80.80
2007,08,02,07,03,133.60
2007,08,02,07,04,157.20
2007,08,02,07,05,161.60
2007,08,02,07,06,163.20
2007,08,02,07,07,165.60
2007,08,02,07,08,167.90
2007,08,02,07,09,170.80
2007,08,02,07,10,172.00
2007,08,02,07,11,173.60
2007,08,02,07,12,176.30
2007,08,02,07,13,178.30
2007,08,02,07,14,179.90
2007,08,02,07,15,182.30
2007,08,02,07,16,183.00
2007,08,02,07,17,185.00
2007,08,02,07,18,186.40
2007,08,02,07,19,188.70
2007,08,02,07,20,190.00
2007,08,02,07,21,193.30
2007,08,02,07,22,196.70
2007,08,02,07,23,199.00
2007,08,02,07,24,199.60
2007,08,02,07,25,202.70
2007,08,02,07,26,205.10
2007,08,02,07,27,207.90
2007,08,02,07,28,210.80
2007,08,02,07,29,213.10
2007,08,02,07,30,214.90
2007,08,02,07,31,218.00
2007,08,02,07,32,219.80
2007,08,02,07,33,222.40
2007,08,02,07,34,224.80
2007,08,02,07,35,229.10
2007,08,02,07,36,230.60
2007,08,02,07,37,232.00
2007,08,02,07,38,234.60
2007,08,02,07,39,238.50
2007,08,02,07,40,242.80
2007,08,02,07,41,243.30
2007,08,02,07,42,246.60
2007,08,02,07,43,248.00
2007,08,02,07,44,250.80
2007,08,02,07,45,254.50
2007,08,02,07,46,255.00
2007,08,02,07,47,260.30
2007,08,02,07,48,263.00
2007,08,02,07,49,265.90
2007,08,02,07,50,268.30
2007,08,02,07,51,270.40
2007,08,02,07,52,273.50
2007,08,02,07,53,276.30
2007,08,02,07,54,278.90
2007,08,02,07,55,281.90
2007,08,02,07,56,285.60
2007,08,02,07,57,287.80
2007,08,02,07,58,289.70
2007,08,02,07,59,294.20
2007,08,02,08,00,295.70
2007,08,02,08,01,298.80
2007,08,02,08,02,301.70
2007,08,02,08,03,303.70
2007,08,02,08,04,308.10
2007,08,02,08,05,309.40
2007,08,02,08,06,312.20
2007,08,02,08,07,315.50
2007,08,02,08,08,317.20
2007,08,02,08,09,319.50
2007,08,02,08,10,322.80
2007,08,02,08,11,325.90
2007,08,02,08,12,329.40
2007,08,02,08,13,331.10
2007,08,02,08,14,334.80
2007,08,02,08,15,337.50
2007,08,02,08,16,339.40
2007,08,02,08,17,343.50
2007,08,02,08,18,345.40
2007,08,02,08,19,348.00
2007,08,02,08,20,351.50
2007,08,02,08,21,354.80
2007,08,02,08,22,357.20
2007,08,02,08,23,359.20
2007,08,02,08,24,361.80
2007,08,02,08,25,365.20
2007,08,02,08,26,366.80
2007,08,02,08,27,368.90
2007,08,02,08,28,371.10
2007,08,02,08,29,373.80
2007,08,02,08,30,376.90
2007,08,02,08,31,379.20
2007,08,02,08,32,382.30
2007,08,02,08,33,384.60
2007,08,02,08,34,387.20
2007,08,02,08,35,388.60
2007,08,02,08,36,391.60
2007,08,02,08,37,395.30
2007,08,02,08,38,396.80
2007,08,02,08,39,401.00
2007,08,02,08,40,401.70
2007,08,02,08,41,404.70
2007,08,02,08,42,406.90
2007,08,02,08,43,409.20
2007,08,02,08,44,412.50
2007,08,02,08,45,415.10
2007,08,02,08,46,417.20
2007,08,02,08,47,419.30
2007,08,02,08,48,423.10
2007,08,02,08,49,424.70
2007,08,02,08,50,426.80
2007,08,02,08,51,430.60
2007,08,02,08,52,432.50
2007,08,02,08,53,434.80
2007,08,02,08,54,437.80
2007,08,02,08,55,440.30
2007,08,02,08,56,442.80
2007,08,02,08,57,445.10
2007,08,02,08,58,448.60
2007,08,02,08,59,450.80
2007,08,02,09,00,453.80
2007,08,02,09,01,456.50
2007,08,02,09,02,458.60
2007,08,02,09,03,461.20
2007,08,02,09,04,464.60
2007,08,02,09,05,466.80
2007,08,02,09,06,469.80
2007,08,02,09,07,472.50
2007,08,02,09,08,475.40
2007,08,02,09,09,476.20
2007,08,02,09,10,479.10
2007,08,02,09,11,482.50
2007,08,02,09,12,485.10
2007,08,02,09,13,487.00
2007,08,02,09,14,489.50
2007,08,02,09,15,492.40
2007,08,02,09,16,494.90
2007,08,02,09,17,497.80
2007,08,02,09,18,500.10
2007,08,02,09,19,502.40
2007,08,02,09,20,506.00
2007,08,02,09,21,506.40
2007,08,02,09,22,508.60
2007,08,02,09,23,511.60
2007,08,02,09,24,514.40
2007,08,02,09,25,517.90
2007,08,02,09,26,519.10
2007,08,02,09,27,522.40
2007,08,02,09,28,524.80
2007,08,02,09,29,526.50
2007,08,02,09,30,528.20
2007,08,02,09,31,530.50
2007,08,02,09,32,533.10
2007,08,02,09,33,534.90
2007,08,02,09,34,538.00
2007,08,02,09,35,539.80
2007,08,02,09,36,542.40
2007,08,02,09,37,544.50
2007,08,02,09,38,548.20
2007,08,02,09,39,550.90
2007,08,02,09,40,554.30
2007,08,02,09,41,556.00
2007,08,02,09,42,558.60
2007,08,02,09,43,562.80
2007,08,02,09,44,565.80
2007,08,02,09,45,567.20
2007,08,02,09,46,570.50
2007,08,02,09,47,572.10
2007,08,02,09,48,574.50
2007,08,02,09,49,576.90
2007,08,02,09,50,580.00
2007,08,02,09,51,581.20
2007,08,02,09,52,584.40
2007,08,02,09,53,586.30
2007,08,02,09,54,588.60
2007,08,02,09,55,590.70
2007,08,02,09,56,592.00
2007,08,02,09,57,592.50
2007,08,02,09,58,595.70
2007,08,02,09,59,598.50
2007,08,02,10,00,600.40
2007,08,02,10,01,603.00
2007,08,02,10,02,605.20
2007,08,02,10,03,607.40
2007,08,02,10,04,610.00
2007,08,02,10,05,611.40
2007,08,02,10,06,614.50
2007,08,02,10,07,617.20
2007,08,02,10,08,621.00
2007,08,02,10,09,621.40
2007,08,02,10,10,622.00
2007,08,02,10,11,624.40
2007,08,02,10,12,628.60
2007,08,02,10,13,629.00
2007,08,02,10,14,629.40
2007,08,02,10,15,631.80
2007,08,02,10,16,634.10
2007,08,02,10,17,635.00
2007,08,02,10,18,637.20
2007,08,02,10,19,640.30
2007,08,02,10,20,642.70
2007,08,02,10,21,644.90
2007,08,02,10,22,649.00
2007,08,02,10,23,649.00
2007,08,02,10,24,653.70
2007,08,02,10,25,654.40
2007,08,02,10,26,657.50
2007,08,02,10,27,659.90
2007,08,02,10,28,662.20
2007,08,02,10,29,665.00
2007,08,02,10,30,666.00
2007,08,02,10,31,670.20
2007,08,02,10,32,671.60
2007,08,02,10,33,673.00
2007,08,02,10,34,676.90
2007,08,02,10,35,679.00
2007,08,02,10,36,682.00
2007,08,02,10,37,684.30
2007,08,02,10,38,687.20
2007,08,02,10,39,689.90
2007,08,02,10,40,691.00
2007,08,02,10,41,693.50
2007,08,02,10,42,694.00
2007,08,02,10,43,696.40
2007,08,02,10,44,698.00
2007,08,02,10,45,699.60
2007,08,02,10,46,702.20
2007,08,02,10,47,704.80
2007,08,02,10,48,704.90
2007,08,02,10,49,703.70
2007,08,02,10,50,708.70
2007,08,02,10,51,711.10
2007,08,02,10,52,713.40
2007,08,02,10,53,716.20
2007,08,02,10,54,718.90
2007,08,02,10,55,721.20
2007,08,02,10,56,723.60
2007,08,02,10,57,727.00
2007,08,02,10,58,728.70
2007,08,02,10,59,730.80
2007,08,02,11,00,733.00
2007,08,02,11,01,737.30
2007,08,02,11,02,738.80
2007,08,02,11,03,742.10
2007,08,02,11,04,746.30
2007,08,02,11,05,750.80
2007,08,02,11,06,754.50
2007,08,02,11,07,758.20
2007,08,02,11,08,760.60
2007,08,02,11,09,764.70
2007,08,02,11,10,768.60
2007,08,02,11,11,772.80
2007,08,02,11,12,777.80
2007,08,02,11,13,783.20
2007,08,02,11,14,786.80
2007,08,02,11,15,791.10
2007,08,02,11,16,794.50
2007,08,02,11,17,795.00
2007,08,02,11,18,793.70
2007,08,02,11,19,776.70
2007,08,02,11,20,798.40
2007,08,02,11,21,814.00
2007,08,02,11,22,816.50
2007,08,02,11,23,809.00
2007,08,02,11,24,815.50
2007,08,02,11,25,807.00
2007,08,02,11,26,817.50
2007,08,02,11,27,836.70
2007,08,02,11,28,863.30
2007,08,02,11,29,860.90
2007,08,02,11,30,790.00
2007,08,02,11,31,766.00
2007,08,02,11,32,766.00
2007,08,02,11,33,766.00
2007,08,02,11,34,766.00
2007,08,02,11,35,856.00
2007,08,02,11,36,842.90
2007,08,02,11,37,807.40
2007,08,02,11,38,816.00
2007,08,02,11,39,803.10
2007,08,02,11,40,796.00
2007,08,02,11,41,794.10
2007,08,02,11,42,777.00
2007,08,02,11,43,620.10
2007,08,02,11,44,424.00
2007,08,02,11,45,424.00
2007,08,02,11,46,752.50
2007,08,02,11,47,773.00
2007,08,02,11,48,791.20
2007,08,02,11,49,848.20
2007,08,02,11,50,851.00
2007,08,02,11,51,851.00
2007,08,02,11,52,853.40
2007,08,02,11,53,848.70
2007,08,02,11,54,847.00
2007,08,02,11,55,847.90
2007,08,02,11,56,843.00
2007,08,02,11,57,838.00
2007,08,02,11,58,838.00
2007,08,02,11,59,857.00
2007,08,02,12,00,858.00
2007,08,02,12,01,858.00
2007,08,02,12,02,700.80
2007,08,02,12,03,615.00
2007,08,02,12,04,824.10
2007,08,02,12,05,858.90
2007,08,02,12,06,845.10
2007,08,02,12,07,840.70
2007,08,02,12,08,851.20
2007,08,02,12,09,856.00
2007,08,02,12,10,838.10
2007,08,02,12,11,828.40
2007,08,02,12,12,806.60
2007,08,02,12,13,842.70
2007,08,02,12,14,849.40
2007,08,02,12,15,853.00
2007,08,02,12,16,853.00
2007,08,02,12,17,853.70
2007,08,02,12,18,854.80
2007,08,02,12,19,849.50
2007,08,02,12,20,850.90
2007,08,02,12,21,843.30
2007,08,02,12,22,860.90
2007,08,02,12,23,860.00
2007,08,02,12,24,860.30
2007,08,02,12,25,863.40
2007,08,02,12,26,865.00
2007,08,02,12,27,855.40
2007,08,02,12,28,868.50
2007,08,02,12,29,872.00
2007,08,02,12,30,871.10
2007,08,02,12,31,870.00
2007,08,02,12,32,872.80
2007,08,02,12,33,870.80
2007,08,02,12,34,871.90
2007,08,02,12,35,872.00
2007,08,02,12,36,872.90
2007,08,02,12,37,872.90
2007,08,02,12,38,873.30
2007,08,02,12,39,874.20
2007,08,02,12,40,877.00
2007,08,02,12,41,876.40
2007,08,02,12,42,874.50
2007,08,02,12,43,877.30
2007,08,02,12,44,874.90
2007,08,02,12,45,872.30
2007,08,02,12,46,870.00
2007,08,02,12,47,868.90
2007,08,02,12,48,867.50
2007,08,02,12,49,870.40
2007,08,02,12,50,870.20
2007,08,02,12,51,873.70
2007,08,02,12,52,867.80
2007,08,02,12,53,867.90
2007,08,02,12,54,870.00
2007,08,02,12,55,868.60
2007,08,02,12,56,868.00
2007,08,02,12,57,869.50
2007,08,02,12,58,867.20
2007,08,02,12,59,868.00
2007,08,02,13,00,866.30
2007,08,02,13,01,866.40
2007,08,02,13,02,867.80
2007,08,02,13,03,868.00
2007,08,02,13,04,868.60
2007,08,02,13,05,869.20
2007,08,02,13,06,868.00
2007,08,02,13,07,866.00
2007,08,02,13,08,866.90
2007,08,02,13,09,868.00
2007,08,02,13,10,867.70
2007,08,02,13,11,866.30
2007,08,02,13,12,866.00
2007,08,02,13,13,867.70
2007,08,02,13,14,868.00
2007,08,02,13,15,869.80
2007,08,02,13,16,867.70
2007,08,02,13,17,868.40
2007,08,02,13,18,868.90
2007,08,02,13,19,871.30
2007,08,02,13,20,870.00
2007,08,02,13,21,870.00
2007,08,02,13,22,870.00
2007,08,02,13,23,868.60
2007,08,02,13,24,867.60
2007,08,02,13,25,869.40
2007,08,02,13,26,869.90
2007,08,02,13,27,868.00
2007,08,02,13,28,869.20
2007,08,02,13,29,870.00
2007,08,02,13,30,869.30
2007,08,02,13,31,870.00
2007,08,02,13,32,868.20
2007,08,02,13,33,868.00
2007,08,02,13,34,862.70
2007,08,02,13,35,860.90
2007,08,02,13,36,869.20
2007,08,02,13,37,870.00
2007,08,02,13,38,873.20
2007,08,02,13,39,859.60
2007,08,02,13,40,862.60
2007,08,02,13,41,872.00
2007,08,02,13,42,872.00
2007,08,02,13,43,868.50
2007,08,02,13,44,867.90
2007,08,02,13,45,867.00
2007,08,02,13,46,866.20
2007,08,02,13,47,863.80
2007,08,02,13,48,864.30
2007,08,02,13,49,865.00
2007,08,02,13,50,863.10
2007,08,02,13,51,863.60
2007,08,02,13,52,862.80
2007,08,02,13,53,860.60
2007,08,02,13,54,861.00
2007,08,02,13,55,861.00
2007,08,02,13,56,861.20
2007,08,02,13,57,862.00
2007,08,02,13,58,860.00
2007,08,02,13,59,858.70
2007,08,02,14,00,858.00
2007,08,02,14,01,859.70
2007,08,02,14,02,858.00
2007,08,02,14,03,858.60
2007,08,02,14,04,860.00
2007,08,02,14,05,858.70
2007,08,02,14,06,856.40
2007,08,02,14,07,857.70
2007,08,02,14,08,855.70
2007,08,02,14,09,854.00
2007,08,02,14,10,855.00
2007,08,02,14,11,854.60
2007,08,02,14,12,851.80
2007,08,02,14,13,852.90
2007,08,02,14,14,851.00
2007,08,02,14,15,851.00
2007,08,02,14,16,849.90
2007,08,02,14,17,849.00
2007,08,02,14,18,849.00
2007,08,02,14,19,849.00
2007,08,02,14,20,850.10
2007,08,02,14,21,850.30
2007,08,02,14,22,847.00
2007,08,02,14,23,846.30
2007,08,02,14,24,846.00
2007,08,02,14,25,845.60
2007,08,02,14,26,842.50
2007,08,02,14,27,843.30
2007,08,02,14,28,842.00
2007,08,02,14,29,842.00
2007,08,02,14,30,843.90
2007,08,02,14,31,843.80
2007,08,02,14,32,841.40
2007,08,02,14,33,840.00
2007,08,02,14,34,838.90
2007,08,02,14,35,838.00
2007,08,02,14,36,838.00
2007,08,02,14,37,837.50
2007,08,02,14,38,835.60
2007,08,02,14,39,836.20
2007,08,02,14,40,835.00
2007,08,02,14,41,833.40
2007,08,02,14,42,833.00
2007,08,02,14,43,828.50
2007,08,02,14,44,830.60
2007,08,02,14,45,830.00
2007,08,02,14,46,828.80
2007,08,02,14,47,826.40
2007,08,02,14,48,827.90
2007,08,02,14,49,825.60
2007,08,02,14,50,824.60
2007,08,02,14,51,824.40
2007,08,02,14,52,823.00
2007,08,02,14,53,821.50
2007,08,02,14,54,819.10
2007,08,02,14,55,821.00
2007,08,02,14,56,821.70
2007,08,02,14,57,821.20
2007,08,02,14,58,817.20
2007,08,02,14,59,818.60
2007,08,02,15,00,816.80
2007,08,02,15,01,814.00
2007,08,02,15,02,811.90
2007,08,02,15,03,809.00
2007,08,02,15,04,809.70
2007,08,02,15,05,807.60
2007,08,02,15,06,807.20
2007,08,02,15,07,807.30
2007,08,02,15,08,802.60
2007,08,02,15,09,802.50
2007,08,02,15,10,802.20
2007,08,02,15,11,802.00
2007,08,02,15,12,798.40
2007,08,02,15,13,800.50
2007,08,02,15,14,800.10
2007,08,02,15,15,796.80
2007,08,02,15,16,796.00
2007,08,02,15,17,799.20
2007,08,02,15,18,793.00
2007,08,02,15,19,793.00
2007,08,02,15,20,790.60
2007,08,02,15,21,788.00
2007,08,02,15,22,788.00
2007,08,02,15,23,788.00
2007,08,02,15,24,786.90
2007,08,02,15,25,782.00
2007,08,02,15,26,782.00
2007,08,02,15,27,784.60
2007,08,02,15,28,782.70
2007,08,02,15,29,780.20
2007,08,02,15,30,777.00
2007,08,02,15,31,776.30
2007,08,02,15,32,775.00
2007,08,02,15,33,773.80
2007,08,02,15,34,770.50
2007,08,02,15,35,769.80
2007,08,02,15,36,765.20
2007,08,02,15,37,765.00
2007,08,02,15,38,760.40
2007,08,02,15,39,761.50
2007,08,02,15,40,760.00
2007,08,02,15,41,757.90
2007,08,02,15,42,754.90
2007,08,02,15,43,751.00
2007,08,02,15,44,751.00
2007,08,02,15,45,749.70
2007,08,02,15,46,747.20
2007,08,02,15,47,744.10
2007,08,02,15,48,743.80
2007,08,02,15,49,738.80
2007,08,02,15,50,737.00
2007,08,02,15,51,735.50
2007,08,02,15,52,736.60
2007,08,02,15,53,734.80
2007,08,02,15,54,732.40
2007,08,02,15,55,730.10
2007,08,02,15,56,729.00
2007,08,02,15,57,728.30
2007,08,02,15,58,724.20
2007,08,02,15,59,720.50
2007,08,02,16,00,717.50
2007,08,02,16,01,719.00
2007,08,02,16,02,715.80
2007,08,02,16,03,711.20
2007,08,02,16,04,708.30
2007,08,02,16,05,707.80
2007,08,02,16,06,706.30
2007,08,02,16,07,703.10
2007,08,02,16,08,700.50
2007,08,02,16,09,698.60
2007,08,02,16,10,698.00
2007,08,02,16,11,693.50
2007,08,02,16,12,691.00
2007,08,02,16,13,688.90
2007,08,02,16,14,684.90
2007,08,02,16,15,682.30
2007,08,02,16,16,679.70
2007,08,02,16,17,674.50
2007,08,02,16,18,672.30
2007,08,02,16,19,670.40
2007,08,02,16,20,670.00
2007,08,02,16,21,668.20
2007,08,02,16,22,663.50
2007,08,02,16,23,662.50
2007,08,02,16,24,660.20
2007,08,02,16,25,657.50
2007,08,02,16,26,656.00
2007,08,02,16,27,650.70
2007,08,02,16,28,648.90
2007,08,02,16,29,646.10
2007,08,02,16,30,643.80
2007,08,02,16,31,643.20
2007,08,02,16,32,640.40
2007,08,02,16,33,640.00
2007,08,02,16,34,637.90
2007,08,02,16,35,636.00
2007,08,02,16,36,634.60
2007,08,02,16,37,630.80
2007,08,02,16,38,627.00
2007,08,02,16,39,627.60
2007,08,02,16,40,622.00
2007,08,02,16,41,620.50
2007,08,02,16,42,617.00
2007,08,02,16,43,615.70
2007,08,02,16,44,613.40
2007,08,02,16,45,612.20
2007,08,02,16,46,607.70
2007,08,02,16,47,606.00
2007,08,02,16,48,606.00
2007,08,02,16,49,604.20
2007,08,02,16,50,603.00
2007,08,02,16,51,601.00
2007,08,02,16,52,597.60
2007,08,02,16,53,596.00
2007,08,02,16,54,593.40
2007,08,02,16,55,589.60
2007,08,02,16,56,590.50
2007,08,02,16,57,589.00
2007,08,02,16,58,583.50
2007,08,02,16,59,581.30
2007,08,02,17,00,579.00
2007,08,02,17,01,575.80
2007,08,02,17,02,575.00
2007,08,02,17,03,570.40
2007,08,02,17,04,567.50
2007,08,02,17,05,564.80
2007,08,02,17,06,562.00
2007,08,02,17,07,561.00
2007,08,02,17,08,557.50